Location: Haliburton Scout Reserve
(45.0900°N, 78.3200°W)
Time: 01:59:29
(UTC-04:00)

NANOSAT C BR1 - Pass Details

Date: 25 May 2022
Orbit: 583 x 601 km, 98.0° (Epoch: 27 June)

Event Time Altitude Azimuth Distance (km) Brightness Sun altitude
Rises 04:34:29 0° 357° (N) 2,821 ? -9.3°
Reaches altitude 10° 04:37:16 10° 337° (NNW) 1,914 ? -8.9°
Maximum altitude 04:39:54 17° 297° (WNW) 1,518 ? -8.5°
Drops below altitude 10° 04:42:33 10° 257° (WSW) 1,905 ? -8.2°
Enters shadow 04:43:01 - 252° (WSW) 2,033 ? -8.1°
